Location: Chimay
(50.0486°N, 4.3171°E)
Time: 10:44:58
(UTC+00:00)

EO 1 Del DPAF - Pass Details

Date: 08 August 2020
Orbit: 514 x 515 km, 98.0° (Epoch: 21 September)

Event Time Altitude Azimuth Distance (km) Brightness Sun altitude
Rises 23:34:35 0° 6° (N) 2,645 8.2 -24.1°
Reaches altitude 10° 23:36:49 10° 357° (N) 1,753 7.0 -24.1°
Maximum altitude 23:40:13 33° 293° (WNW) 886 4.5 -24.1°
Enters shadow 23:40:23 33° 287° (WNW) 889 4.5 -24.1°
